#timestamp,LO_Frequency,Hit,StdDev 
1575766815.8,286046995.2,N
1575766835.7,286046996.4,N
1575766855.5,286046996.1,N
1575766875.3,286046995.9,N
1575766895.2,286046995.7,N
1575766915.9,286046995.7,N
1575766935.7,286046994.2,N
1575766955.6,286046991.9,N
1575766975.4,286046994.4,N
1575766995.3,286046995.7,N
1575767015.1,286046992.1,N
1575767016.0,286046992.1,N
1575767035.8,286046990.5,N
1575767055.7,286046990.9,N
1575767075.5,286046994.6,N
1575767095.3,286046993.8,N
1575767115.2,286046996.3,N
1575767135.0,286046993.3,Y
1575767135.9,286046993.3,P
1575767155.8,286047000.5,N
1575767175.6,286046997.0,N
1575767195.4,286046997.6,N
1575767215.3,286046998.8,N
1575767235.1,286047000.2,N
1575767255.8,286047002.0,N
1575767275.7,286047000.9,N
1575767295.5,286047000.1,N
1575767315.4,286047001.2,N
1575767335.2,286046997.8,N
1575767355.0,286046997.7,N
1575767355.9,286046997.7,N
1575767375.8,286046995.9,N
1575767395.6,286046995.7,N
1575767415.5,286046997.7,N
1575767435.3,286046998.8,N
1575767455.1,286047000.5,N
1575767475.9,286046998.1,N
1575767495.7,286046999.5,N
1575767515.5,286046999.4,N
1575767535.4,286047000.7,N
1575767555.2,286046999.8,N
1575767575.1,286047000.8,N
1575767576.0,286047000.8,N
1575767595.8,286046998.9,N
1575767615.6,286046997.8,N
1575767635.5,286046999.2,N
1575767655.3,286046999.3,N
1575767675.1,286047000.0,N
1575767695.9,286047000.2,N
1575767715.7,286046999.7,N
1575767735.6,286047002.8,N
1575767755.4,286047001.2,N
1575767775.2,286047002.8,N
1575767795.1,286046999.8,N
1575767796.0,286046999.8,N
1575767815.8,286046998.9,N
1575767835.6,286046998.6,N
1575767855.5,286046997.4,N
1575767875.3,286046998.8,N
1575767895.2,286047000.1,N
1575767915.9,286046998.3,N
1575767935.7,286047000.9,N
1575767955.6,286046998.8,N
1575767975.4,286046997.4,N
1575767995.2,286046998.8,N
1575768015.1,286046997.7,N
1575768016.0,286046997.7,N
1575768035.8,286046996.0,N
1575768055.7,286046995.3,Y
1575768075.5,286046996.4,P
1575768095.3,286046997.5,N
1575768115.2,286046996.7,N
1575768135.0,286046996.2,Y
1575768135.9,286046996.2,P
1575768155.7,286046999.6,N
1575768175.6,286046995.1,P
1575768195.4,286047000.4,N
1575768215.3,286047000.9,N
1575768235.1,286047000.9,N
1575768236.0,286047000.9,N
1575768255.8,286046998.6,N
1575768275.7,286047001.4,N
1575768295.5,286047000.0,N
1575768315.3,286047001.0,N
1575768335.2,286047000.9,N
1575768355.0,286046998.1,N
1575768355.9,286046998.1,N
1575768375.8,286047002.1,N
1575768395.6,286047002.7,N
1575768415.4,286047003.9,N
1575768435.3,286047004.0,N
1575768455.1,286046999.8,N
1575768475.8,286047000.3,N
1575768495.7,286047000.7,N
1575768515.5,286046998.5,N
1575768535.4,286047001.7,N
1575768555.2,286046999.8,N
1575768575.0,286047002.1,N
1575768575.9,286047002.1,N
1575768595.8,286047002.1,N
1575768615.6,286047002.8,N
1575768635.4,286047000.3,N
1575768655.3,286047000.2,N
1575768675.1,286046998.7,N
1575768695.9,286046996.5,N
1575768715.7,286046999.2,N
1575768735.5,286046996.8,N
1575768755.4,286046998.9,N
1575768775.2,286046999.8,N
1575768795.0,286047002.8,N
1575768795.9,286047002.8,N
1575768815.8,286047000.4,N
1575768835.6,286046999.8,N
1575768855.5,286046998.8,N
1575768875.3,286046999.3,N
1575768895.1,286047000.3,N
1575768915.9,286047000.1,N
1575768935.7,286047000.3,N
1575768955.5,286046999.9,N
1575768975.4,286047003.6,N
1575768995.2,286047002.7,N
1575769015.1,286047004.4,N
1575769016.0,286047004.4,N
1575769035.8,286047004.0,N
1575769055.6,286047003.6,N
1575769075.5,286047005.1,N
1575769095.3,286047003.8,N
1575769115.1,286047002.0,N
1575769135.9,286047002.2,N
1575769155.7,286047000.3,N
1575769175.6,286047001.1,N
1575769195.4,286046998.5,N
1575769215.2,286046996.5,N
1575769235.1,286046997.5,N
1575769236.0,286046997.5,N
1575769255.8,286046995.3,N
1575769275.7,286046995.1,N
1575769295.5,286046995.1,N
1575769315.3,286046997.7,N
1575769335.2,286047001.5,N
1575769355.9,286047003.9,N
1575769375.7,286047002.2,N
1575769395.6,286046998.4,N
1575769415.4,286047001.0,N
1575769435.3,286047000.6,N
1575769455.1,286046999.7,N
1575769456.0,286046999.7,N
1575769475.8,286047002.6,N
1575769495.7,286047000.4,N
1575769515.5,286047002.7,N
1575769535.3,286047002.1,N
1575769555.2,286046999.8,N
1575769575.0,286047000.1,N
1575769575.9,286047000.1,N
1575769595.8,286047003.5,N
1575769615.6,286047000.2,N
1575769635.4,286046999.0,N
1575769655.3,286047000.2,N
1575769675.1,286047000.7,N
1575769695.8,286046998.4,N
1575769715.7,286047000.9,N
1575769735.5,286047000.0,N
1575769755.4,286046998.2,N
1575769775.2,286046999.3,N
1575769795.0,286046997.0,N
1575769795.9,286046997.0,N
1575769815.8,286046996.8,N
1575769835.6,286046996.9,N
1575769855.4,286046998.2,N
1575769875.3,286047000.2,N
1575769895.1,286047002.8,N
1575769915.9,286047000.1,N
1575769935.7,286047000.8,N
1575769955.5,286047001.0,N
1575769975.4,286047000.1,N
1575769995.2,286047000.0,N
1575770015.0,286047000.4,N
1575770015.9,286047000.4,N
1575770035.8,286046999.6,N
1575770055.6,286046999.6,N
1575770075.5,286046998.4,N
1575770095.3,286046999.1,N
1575770115.1,286046997.5,N
1575770135.9,286046997.5,N
1575770155.7,286046994.9,Y
1575770175.5,286046995.0,P
1575770195.4,286046995.1,N
1575770215.2,286046995.8,N
1575770235.1,286046994.9,N
1575770236.0,286046994.9,N
1575770255.8,286046995.4,N
1575770275.6,286046997.5,N
1575770295.5,286046998.3,N
1575770315.3,286046996.6,N
1575770335.1,286046996.6,N
1575770355.9,286046997.9,N
1575770375.7,286046996.9,N
1575770395.6,286046998.2,N
